Latest Weather Observations for North Head

IDN60901

Issued at 10:31 am EDT Monday 27 February 2017 (issued every 10 minutes, with the page automatically refreshed every 10 minutes)

About weather observations | Map of Sydney area stations | Latest observations for Sydney area | Other Formats
Station Details ID: 066197 Name: NORTH HEAD Lat: -33.82 Lon: 151.30 Height: 90.0 m
Data from the previous 72 hours. | See also: Recent months for locations in New South Wales
Date/Time
EDT
Temp
°C
App
Temp
°C
Dew
Point
°C
Rel
Hum
%
Delta-T
°C
Wind Press
QNH
hPa
Press
MSL
hPa
Rain since
9am
mm
Dir  Spd
km/h
Gust
km/h
Spd
kts
Gust
kts
27/10:30am - - - - - SE 19 26 10 14 - - -
27/10:00am - - - - - SSE 20 32 11 17 - - -
27/09:30am - - - - - SE 19 28 10 15 - - -
27/09:00am - - - - - SE 19 30 10 16 - - -
27/08:30am - - - - - SE 19 28 10 15 - - -
27/08:00am - - - - - ESE 19 30 10 16 - - -
27/07:30am - - - - - ESE 20 33 11 18 - - -
27/07:00am - - - - - ESE 24 35 13 19 - - -
27/06:30am - - - - - ESE 26 35 14 19 - - -
27/06:00am - - - - - ESE 26 33 14 18 - - -
27/05:30am - - - - - ESE 28 39 15 21 - - -
27/05:00am - - - - - ESE 30 43 16 23 - - -
27/04:30am - - - - - ESE 32 43 17 23 - - -
27/04:00am - - - - - ESE 32 44 17 24 - - -
27/03:30am - - - - - ESE 30 41 16 22 - - -
27/03:00am - - - - - ESE 33 46 18 25 - - -
27/02:30am - - - - - ESE 32 46 17 25 - - -
27/02:00am - - - - - ESE 33 48 18 26 - - -
27/01:30am - - - - - E 26 43 14 23 - - -
27/01:06am - - - - - SE 22 46 12 25 - - -
27/01:00am - - - - - S 15 24 8 13 - - -
27/12:30am - - - - - SW 13 22 7 12 - - -
27/12:00am - - - - - SSW 11 17 6 9 - - -
 
Date/Time
EDT
Temp
°C
App
Temp
°C
Dew
Point
°C
Rel
Hum
%
Delta-T
°C
Wind Press
QNH
hPa
Press
MSL
hPa
Rain since
9am
mm
Dir  Spd
km/h
Gust
km/h
Spd
kts
Gust
kts
26/11:30pm - - - - - S 15 24 8 13 - - -
26/11:00pm - - - - - SSW 9 20 5 11 - - -
26/10:30pm - - - - - S 19 30 10 16 - - -
26/10:00pm - - - - - S 22 37 12 20 - - -
26/09:30pm - - - - - S 24 37 13 20 - - -
26/09:00pm - - - - - S 26 35 14 19 - - -
26/08:30pm - - - - - SSE 32 44 17 24 - - -
26/08:08pm - - - - - SSE 32 50 17 27 - - -
26/08:00pm - - - - - S 24 37 13 20 - - -
26/07:30pm - - - - - S 28 39 15 21 - - -
26/07:00pm - - - - - S 26 39 14 21 - - -
26/06:30pm - - - - - S 24 39 13 21 - - -
26/06:00pm - - - - - S 24 37 13 20 - - -
26/05:30pm - - - - - S 26 39 14 21 - - -
26/05:00pm - - - - - S 26 43 14 23 - - -
26/04:30pm - - - - - SSE 28 43 15 23 - - -
26/04:00pm - - - - - S 24 39 13 21 - - -
26/03:30pm - - - - - S 17 30 9 16 - - -
26/03:00pm - - - - - S 20 32 11 17 - - -
26/02:30pm - - - - - S 22 33 12 18 - - -
26/02:00pm - - - - - S 22 30 12 16 - - -
26/01:30pm - - - - - S 20 30 11 16 - - -
26/01:00pm - - - - - S 20 32 11 17 - - -
26/12:30pm - - - - - S 20 30 11 16 - - -
26/12:00pm - - - - - S 19 28 10 15 - - -
26/11:30am - - - - - SSE 24 35 13 19 - - -
26/11:00am - - - - - SE 20 35 11 19 - - -
26/10:30am - - - - - SE 20 32 11 17 - - -
26/10:00am - - - - - SSE 24 37 13 20 - - -
26/09:30am - - - - - SE 20 33 11 18 - - -
26/09:00am - - - - - SE 22 41 12 22 - - -
26/08:30am - - - - - SSE 22 35 12 19 - - -
26/08:00am - - - - - SSE 28 39 15 21 - - -
26/07:30am - - - - - SSE 28 41 15 22 - - -
26/07:00am - - - - - SSE 26 35 14 19 - - -
26/06:30am - - - - - SSE 24 33 13 18 - - -
26/06:00am - - - - - SE 15 28 8 15 - - -
26/05:30am - - - - - SSE 28 39 15 21 - - -
26/05:00am - - - - - SE 22 37 12 20 - - -
26/04:30am - - - - - SE 28 43 15 23 - - -
26/04:00am - - - - - SE 28 44 15 24 - - -
26/03:35am - - - - - SE 32 50 17 27 - - -
26/03:30am - - - - - SE 33 50 18 27 - - -
26/03:00am - - - - - ESE 33 46 18 25 - - -
26/02:30am - - - - - ESE 33 44 18 24 - - -
26/02:00am - - - - - ESE 30 48 16 26 - - -
26/01:59am - - - - - ESE 30 48 16 26 - - -
26/01:42am - - - - - ESE 22 44 12 24 - - -
26/01:30am - - - - - SE 11 26 6 14 - - -
26/01:00am - - - - - SE 30 59 16 32 - - -
26/12:53am - - - - - SSW 13 56 7 30 - - -
26/12:30am - - - - - W 7 13 4 7 - - -
26/12:00am - - - - - W 7 9 4 5 - - -
 
Date/Time
EDT
Temp
°C
App
Temp
°C
Dew
Point
°C
Rel
Hum
%
Delta-T
°C
Wind Press
QNH
hPa
Press
MSL
hPa
Rain since
9am
mm
Dir  Spd
km/h
Gust
km/h
Spd
kts
Gust
kts
25/11:30pm - - - - - SW 7 9 4 5 - - -
25/11:00pm - - - - - SW 7 13 4 7 - - -
25/10:30pm - - - - - SW 9 17 5 9 - - -
25/10:00pm - - - - - WSW 9 13 5 7 - - -
25/09:30pm - - - - - SW 9 13 5 7 - - -
25/09:00pm - - - - - WSW 9 15 5 8 - - -
25/08:30pm - - - - - WSW 11 17 6 9 - - -
25/08:00pm - - - - - SW 9 15 5 8 - - -
25/07:30pm - - - - - SW 7 13 4 7 - - -
25/07:00pm - - - - - SW 11 19 6 10 - - -
25/06:30pm - - - - - SW 7 15 4 8 - - -
25/06:00pm - - - - - SW 13 17 7 9 - - -
25/05:30pm - - - - - SSW 11 22 6 12 - - -
25/05:00pm - - - - - SW 13 28 7 15 - - -
25/04:30pm - - - - - SSW 15 24 8 13 - - -
25/04:00pm - - - - - SSW 15 26 8 14 - - -
25/03:30pm - - - - - SW 11 19 6 10 - - -
25/03:00pm - - - - - SSW 11 19 6 10 - - -
25/02:30pm - - - - - SSW 15 22 8 12 - - -
25/02:00pm - - - - - SSW 13 22 7 12 - - -
25/01:30pm - - - - - SSW 13 20 7 11 - - -
25/01:00pm - - - - - SSE 22 37 12 20 - - -
25/12:30pm - - - - - S 20 37 11 20 - - -
25/12:00pm - - - - - S 22 37 12 20 - - -
25/11:30am - - - - - S 17 33 9 18 - - -
25/11:00am - - - - - S 17 26 9 14 - - -
25/10:30am - - - - - S 19 32 10 17 - - -
25/10:00am - - - - - S 20 33 11 18 - - -
25/09:30am - - - - - S 20 32 11 17 - - -
25/09:00am - - - - - S 19 33 10 18 - - -
25/08:30am - - - - - S 26 46 14 25 - - -
25/08:00am - - - - - SSE 35 50 19 27 - - -
25/07:30am - - - - - S 30 50 16 27 - - -
25/07:27am - - - - - S 28 50 15 27 - - -
25/07:00am - - - - - S 22 37 12 20 - - -
25/06:30am - - - - - S 26 43 14 23 - - -
25/06:00am - - - - - S 22 37 12 20 - - -
25/05:30am - - - - - S 20 32 11 17 - - -
25/05:00am - - - - - SW 9 20 5 11 - - -
25/04:30am - - - - - S 26 37 14 20 - - -
25/04:00am - - - - - SW 19 33 10 18 - - -
25/03:30am - - - - - WSW 15 20 8 11 - - -
25/03:00am - - - - - SW 15 26 8 14 - - -
25/02:30am - - - - - SW 15 22 8 12 - - -
25/02:00am - - - - - SW 13 22 7 12 - - -
25/01:30am - - - - - SW 9 17 5 9 - - -
25/01:00am - - - - - SW 11 20 6 11 - - -
25/12:30am - - - - - S 11 22 6 12 - - -
25/12:00am - - - - - SSE 19 28 10 15 - - -
 
Date/Time
EDT
Temp
°C
App
Temp
°C
Dew
Point
°C
Rel
Hum
%
Delta-T
°C
Wind Press
QNH
hPa
Press
MSL
hPa
Rain since
9am
mm
Dir  Spd
km/h
Gust
km/h
Spd
kts
Gust
kts
24/11:30pm - - - - - WSW 17 22 9 12 - - -
24/11:00pm - - - - - SW 11 17 6 9 - - -
24/10:30pm - - - - - SW 11 15 6 8 - - -
24/10:00pm - - - - - SW 7 13 4 7 - - -
24/09:30pm - - - - - S 11 20 6 11 - - -
24/09:00pm - - - - - S 11 17 6 9 - - -
24/08:30pm - - - - - S 13 19 7 10 - - -
24/08:00pm - - - - - S 11 19 6 10 - - -
24/07:30pm - - - - - S 9 17 5 9 - - -
24/07:00pm - - - - - S 11 19 6 10 - - -
24/06:30pm - - - - - S 9 15 5 8 - - -
24/06:00pm - - - - - S 13 19 7 10 - - -
24/05:30pm - - - - - SSE 11 19 6 10 - - -
24/05:00pm - - - - - S 9 13 5 7 - - -
24/04:30pm - - - - - S 9 15 5 8 - - -
24/04:00pm - - - - - S 11 17 6 9 - - -
24/03:30pm - - - - - S 11 17 6 9 - - -
24/03:00pm - - - - - S 13 19 7 10 - - -
24/02:30pm - - - - - SSE 13 24 7 13 - - -
24/02:00pm - - - - - S 15 20 8 11 - - -
24/01:30pm - - - - - S 13 24 7 13 - - -
24/01:00pm - - - - - S 15 20 8 11 - - -
24/12:30pm - - - - - S 17 26 9 14 - - -
24/12:00pm - - - - - S 15 20 8 11 - - -
24/11:30am - - - - - S 15 22 8 12 - - -
24/11:00am - - - - - S 11 20 6 11 - - -

Latest Capital City Observations: Canberra | Sydney | Melbourne | Brisbane | Adelaide | Perth | Hobart | Darwin

Other Formats:

Comma delimited format used in spreadsheet applications
http://www.bom.gov.au/fwo/IDN60901/IDN60901.95768.axf

JavaScript Object Notation format (JSON) in row-major order
http://www.bom.gov.au/fwo/IDN60901/IDN60901.95768.json